Regional Weather Roundup
Issued by NWS

Home | Current Version | Previous Version | Graphics & Text | Print | Product List | Glossary Off
Versions: 1 2 3 4 5 6 7 8 9 10 11 12 13 14 15 16 17 18 19 20 21 22 23 24 25 26 27 28 29 30 31 32 33 34 35 36 37 38 39 40 41 42 43 44 45 46 47 48 49 50

395
ASUS43 KMKX 262221
RWRWI

WISCONSIN REGIONAL WEATHER ROUNDUP
NATIONAL WEATHER SERVICE MILWAUKEE/SULLIVAN WI
500 PM CDT THU MAY 26 2016

NOTE: "FAIR" INDICATES FEW OR NO CLOUDS BELOW 12,000 FEET WITH NO
SIGNIFICANT WEATHER AND/OR OBSTRUCTIONS TO VISIBILITY.

WIZ001-002-006>008-014>016-023>028-262300-
NORTHWEST WISCONSIN

CITY           SKY/WX    TMP DP  RH WIND       PRES   REMARKS
SUPERIOR ARPT  CLOUDY    50  47  87 NE8       29.81F
ASHLAND        SUNNY     69  62  78 NE6       29.79F
HAYWARD        MOSUNNY   77  53  43 SW10      29.78F
SIREN          SUNNY     79  49  34 W8        29.78S
CUMBERLAND     SUNNY     77  48  36 SW14      29.78F
RICE LAKE      MOSUNNY   79  50  35 W8        29.80F
CHETEK         SUNNY     78  54  43 W3        29.78F
LADYSMITH      PTSUNNY   76  59  56 SW6       29.81F
EAU CLAIRE     SUNNY     80  52  37 W9G22     29.76F HX  80
MENOMONIE      SUNNY     82  51  35 SW12      29.77F HX  81
NEW RICHMOND   SUNNY     78  47  33 W10G18    29.79F
OSCEOLA        SUNNY     79  53  40 W12       29.80F
$$

WIZ003>005-009-010-017-018-262300-
NORTH CENTRAL WISCONSIN

CITY           SKY/WX    TMP DP  RH WIND       PRES   REMARKS
MANITOWISH WTR NOT AVBL
ARBOR VITAE    SUNNY     74  62  66 S6        29.82S
WOODRUFF       SUNNY     74  62  66 S6        29.82S
RHINELANDER    PTSUNNY   73  59  61 SW5       29.83F
EAGLE RIVER      N/A     73  55  53 W8        29.82F
LAND O LAKES   SUNNY     73  56  55 W6        29.83F
PHILLIPS       MOSUNNY   76  59  56 SW10      29.81S
TOMAHAWK       SUNNY     74  57  55 W5        29.82F
MEDFORD        MOSUNNY   74  59  58 SW12      29.83F
MERRILL        MOSUNNY   77  60  56 W12G17    29.83S
$$

WIZ029-030-035-036-043>047-262300-
CENTRAL WISCONSIN

CITY           SKY/WX    TMP DP  RH WIND       PRES   REMARKS
WAUSAU         MOSUNNY   79  57  46 W9        29.81F HX  80
MOSINEE        MOSUNNY   75  55  50 W13       29.84F
MARSHFIELD     MOSUNNY   77  58  51 W7        29.81F
STEVENS POINT  MOSUNNY   78  55  45 W10G17    29.83F
WAUPACA        SUNNY     82  54  37 W12       29.81F HX  81
WAUTOMA        SUNNY     82  57  42 W16       29.81F HX  82
WISC RAPIDS    PTSUNNY   81  55  40 W7        29.81F HX  81
CAMP DOUGLAS   SUNNY     80  65  60 W10       29.80F HX  82
$$

WIZ011>013-019>022-031-037>040-048>050-262300-
NORTHEAST WISCONSIN

CITY           SKY/WX    TMP DP  RH WIND       PRES   REMARKS
ANTIGO         MOSUNNY   73  61  65 W9        29.84F
SHAWANO        MOSUNNY   80  56  43 W12G18    29.82S HX  80
OCONTO         PTSUNNY   80  61  52 W13G18    29.80S HX  81
STURGEON BAY   NOT AVBL
GREEN BAY      SUNNY     81  60  48 W15G23    29.81F HX  82
MANITOWOC      MOSUNNY   80  59  48 W16G23    29.82S HX  81
APPLETON       MOSUNNY   79  55  44 W14       29.81F
CLINTONVILLE   SUNNY     81  50  34 W10G20    29.81F HX  80
OSHKOSH        SUNNY     81  58  45 W8        29.81F HX  81
$$

WIZ032>034-041-042-053>061-262300-
SOUTHWEST WISCONSIN

CITY           SKY/WX    TMP DP  RH WIND       PRES   REMARKS
LA CROSSE      SUNNY     83  55  38 W8        29.78F HX  82
SPARTA         SUNNY     81  57  44 W6        29.80F HX  81
VIROQUA        SUNNY     79  57  46 W5        29.82F HX  80
BOSCOBEL       SUNNY     84  55  36 VRB7      29.79F HX  83
PRAIRIE DU CHI CLOUDY    81  55  40 NW7       29.79F HX  80
PLATTEVILLE    MOSUNNY   83  53  36 W9        29.81F HX  82
$$

WIZ056-057-062-063-064-067-068-262300-
SOUTH CENTRAL WISCONSIN

CITY           SKY/WX    TMP DP  RH WIND       PRES   REMARKS
REEDSBURG      SUNNY     81  57  44 W9G17     29.80F HX  81
BARABOO/DELLS  SUNNY     81  51  34 NW9       29.80F HX  80
LONE ROCK      MOSUNNY   84  53  34 W9        29.79F HX  82
MINERAL POINT  MOSUNNY   82  48  30 NW3       29.82F HX  81
MADISON        MOSUNNY   83  54  36 NW10      29.80F HX  82
MIDDLETON      SUNNY     84  53  34 W6        29.81F HX  82
WATERTOWN      SUNNY     82  58  43 W6        29.81F HX  82
MONROE         SUNNY     82  50  32 W13       29.81F HX  81
JANESVILLE     MOSUNNY   84  52  32 W9        29.81F HX  82
$$

WIZ051-052-058>065-066-070>072-262300-
SOUTHEAST WISCONSIN

CITY           SKY/WX    TMP DP  RH WIND       PRES   REMARKS
MILWAUKEE      PTSUNNY   83  61  47 W8G18     29.82F HX  83
WAUKESHA       MOSUNNY   81  55  41 W15       29.84F HX  80
MILWAUKEE/TIMM MOSUNNY   82  50  32 W10G23    29.83  HX  81
RACINE         SUNNY     83  61  47 W8        29.84F HX  83
BURLINGTON     SUNNY     82  57  42 W10       29.83F HX  82
KENOSHA        PTSUNNY   82  64  54 W8        29.83F HX  83
FOND DU LAC    SUNNY     81  58  45 W8        29.82F HX  81
SHEBOYGAN      CLOUDY    82  57  42 W10       29.82F HX  82
WEST BEND      CLOUDY    81  54  39 W9G16     29.83S HX  80
JUNEAU         MOSUNNY   81  59  47 W9G16     29.83F HX  81
$$

LSZ147-162-262300-
LAKE SUPERIOR

STATION/POSITION TIME  TEMP    WIND        PRES    WAVE
                       AIR SEA DIR/SP/G            HT/PER
                 (UTC) (F)     (DEG/KT/KT) (MB)    (FT/S)
W MID LAKE BUOY  2150   41 38  290/  2/  4 1010.1S   1
DEVILS ISLAND    2200   44      30/  7/  7 1010.1F
SAXON HARBOR     2100   52      20/  2/  3 1009.1F
$$

LMZ867-665-643>646-262300-
LAKE MICHIGAN

STATION/POSITION TIME  TEMP    WIND        PRES    WAVE
                       AIR SEA DIR/SP/G            HT/PER
                 (UTC) (F)     (DEG/KT/KT) (MB)    (FT/S)
CHAMBERS ISLAND  2100   62      CALM  /  8 1009.8R
N MID LAKE BUOY  2150   49 45  220/ 14/ 16 1009.5R   2/ 3
NORTHPORT PIER   2120   61     300/  7/ 19 1010.2R
SISTER BAY       2119   64        CALM       N/A
ALGOMA LAKESHORE 2117          300/ 11/ 19   N/A
KEWAUNEE LAKESHO 2100          260/ 13/ 20 1009.1R
SHEBOYGAN LAKESH 2200   70     160/ 10/ 14 1009.8F
PORT WASHINGTON  2140          270/  5/ 19 1010.2F
S MID LAKE BUOY  2150   58 50  160/  8/  8 1010.6F   1
KENOSHA   LAKESH 2200   82     250/  6/ 15 1009.8S
$$

TC  - TEMPERATURE IN CELSIUS
VSB - VISIBILITY IN STATUTE MILES
WCI - WIND CHILL INDEX
HX  - HEAT INDEX





USA.gov is the U.S. government's official web portal to all federal, state and local government web resources and services.